This is the latest recevied weather packets stored in our database for station/object SP1BMW-13. If no packets are shown the sender has not sent any weather packets the latest 10 day(s).
| Time | Temp. | Humidity | Pressure | Rain* | Wind** | Luminosity | Snow |
|---|---|---|---|---|---|---|---|
| 1777627640 | 20° C | 42% | 1027.7 hPa | 0 mm | 0.89 m/s, 317° | 599 W/m² | - |
| 1777627580 | 20° C | 41% | 1027.7 hPa | 0 mm | 1.79 m/s, 317° | 597 W/m² | - |
| 1777627520 | 19.44° C | 41% | 1027.6 hPa | 0 mm | 2.68 m/s, 263° | 596 W/m² | - |
| 1777627460 | 19.44° C | 41% | 1027.6 hPa | 0 mm | 1.34 m/s, 301° | 595 W/m² | - |
| 1777627401 | 19.44° C | 41% | 1027.7 hPa | 0 mm | 2.24 m/s, 318° | 593 W/m² | - |
| 1777627340 | 19.44° C | 42% | 1027.6 hPa | 0 mm | 2.24 m/s, 321° | 592 W/m² | - |
| 1777627280 | 19.44° C | 41% | 1027.7 hPa | 0 mm | 1.79 m/s, 303° | 590 W/m² | - |
| 1777627220 | 19.44° C | 42% | 1027.9 hPa | 0 mm | 0.45 m/s, 313° | 589 W/m² | - |
| 1777627160 | 19.44° C | 41% | 1027.6 hPa | 0 mm | 2.68 m/s, 287° | 588 W/m² | - |
| 1777627101 | 19.44° C | 41% | 1027.6 hPa | 0 mm | 2.68 m/s, 303° | 587 W/m² | - |
| 1777627040 | 19.44° C | 42% | 1027.8 hPa | 0 mm | 1.79 m/s, 265° | 585 W/m² | - |
| 1777626981 | 19.44° C | 44% | 1027.6 hPa | 0 mm | 0.45 m/s, 308° | 583 W/m² | - |
| 1777626860 | 19.44° C | 42% | 1027.7 hPa | 0 mm | 1.34 m/s, 315° | 581 W/m² | - |
| 1777626800 | 19.44° C | 43% | 1027.7 hPa | 0 mm | 0.89 m/s, 336° | 579 W/m² | - |
| 1777626741 | 19.44° C | 42% | 1027.7 hPa | 0 mm | 0.89 m/s, 305° | 579 W/m² | - |
| 1777626680 | 19.44° C | 41% | 1027.7 hPa | 0 mm | 1.79 m/s, 300° | 576 W/m² | - |
| 1777626620 | 19.44° C | 42% | 1027.7 hPa | 0 mm | 1.79 m/s, 305° | 575 W/m² | - |
| 1777626560 | 18.89° C | 41% | 1027.7 hPa | 0 mm | 0.89 m/s, 299° | 574 W/m² | - |
| 1777626500 | 18.89° C | 42% | 1027.8 hPa | 0 mm | 1.79 m/s, 247° | 573 W/m² | - |
| 1777626440 | 18.89° C | 42% | 1027.6 hPa | 0 mm | 1.34 m/s, 224° | 572 W/m² | - |
| 1777626382 | 18.89° C | 42% | 1027.6 hPa | 0 mm | 0.89 m/s, 286° | 571 W/m² | - |
| 1777626320 | 18.89° C | 43% | 1027.7 hPa | 0 mm | 1.79 m/s, 313° | 569 W/m² | - |
| 1777626260 | 18.89° C | 42% | 1027.7 hPa | 0 mm | 2.68 m/s, 348° | 567 W/m² | - |
| 1777626200 | 18.89° C | 42% | 1027.8 hPa | 0 mm | 1.34 m/s, 292° | 566 W/m² | - |
| 1777626141 | 18.89° C | 42% | 1027.5 hPa | 0 mm | 0.89 m/s, 279° | 565 W/m² | - |
* Rain latest hour (hover to see other rain measurements)
** Current wind speed in m/s (hover to see current wind gust speed)